User: anonymous   Login
Location: �terpigny
(49.8910°N, 2.9249°E)
Time: 12:40:07
(UTC+00:00)
Language:

CSL-04 Debris - Orbit

View from above orbital plane
View from above orbital plane
View from above satellite
View from above satellite

Ground track
Ground track

The orbit data is extracted from the following two-line orbital elements,

1 25733U 99025D   22025.94004182  .00000176  00000-0  11051-3 0  9999
2 25733  98.8857  66.2672 0015733  91.9136 268.3840 14.16546675172864
Epoch (UTC): 25 January 2022 22:33:39
Eccentricity: 0.0015733
inclination: 98.8857°
perigee height: 826 km
apogee height: 848 km
right ascension of ascending node: 66.2672°
argument of perigee: 91.9136°
revolutions per day: 14.16546675
mean anomaly at epoch: 268.3840°
orbit number at epoch: 17286

The dashed part of the orbit path shows where the satellite is in the earth's shadow,  

DLR